Regional Weather Roundup
Issued by NWS State College, PA

Home | Current Version | Previous Version | Graphics & Text | Print | Product List | Glossary On
Versions: 1 2 3 4 5 6 7 8 9 10 11 12 13 14 15 16 17 18 19 20 21 22 23 24 25 26 27 28 29 30 31 32 33 34 35 36 37 38 39 40 41 42 43 44 45 46 47 48 49 50
000
ASUS41 KCTP 170210
RWRCTP

REGIONAL WEATHER ROUNDUP
NATIONAL WEATHER SERVICE STATE COLLEGE PA
1000 PM EDT WED APR 16 2014

Note: "fair" indicates few or no clouds below 12,000 feet with no
significant weather and/or obstructions to visibility.

* = STATION THAT DOES NOT REPORT PRECIPITATION /E.G. RAIN...SNOW...ETC/
    THUNDER OR FOG.

PAZ002>004-007>009-013>016-020>023-029>032-170300-
WESTERN PENNSYLVANIA

CITY           SKY/WX    TMP DP  RH WIND       PRES   REMARKS
ERIE           CLEAR     31  15  52 E10       30.46S
MEADVILLE      NOT AVBL
FRANKLIN*      CLEAR     36  12  38 E3        30.42S
NEW CASTLE     FAIR      37  15  41 CALM      30.43R
BEAVER COUNTY  NOT AVBL
BUTLER*        PTCLDY    36  16  44 E7        30.43S
PITTSBURGH INT MOCLDY    38  17  42 E7        30.39S
PITTSBURGH     PTCLDY    40  14  34 E6        30.39S
INDIANA*       PTCLDY    36  16  44 E5        30.44R
LATROBE        CLEAR     37  19  48 VRB5      30.43R
WASHINGTON CO* PTCLDY    36  18  48 NE7       30.40S
$$

PAZ004>006-010>012-017>019-024>028-033>037-041-042-045-046-049>053-170300-
CENTRAL PENNSYLVANIA

CITY           SKY/WX    TMP DP  RH WIND       PRES   REMARKS
BRADFORD       CLEAR     30  13  49 SE3       30.42R
DUBOIS         CLEAR     36  13  38 E6        30.41R
CLEARFIELD     CLEAR     32  16  51 N3        30.45R
JOHNSTOWN      CLEAR     32  12  43 VRB5      30.39R
ALTOONA        CLEAR     36  16  44 E5        30.46R
STATE COLLEGE  CLEAR     37   6  26 NE3       30.47R
WILLIAMSPORT   CLEAR     36  15  42 E7        30.52R
SELINSGROVE    CLEAR     34  25  69 N3        30.52R
FT INDIANTOWN  PTCLDY    35  26  71 NE3       30.52R
CAPITAL CITY   PTCLDY    37  23  56 CALM      30.52R
HARRISBURG     PTCLDY    42  20  41 CALM      30.52R
YORK           PTCLDY    31  25  78 CALM      30.51R
$$

PAZ038>040-043-044-047-048-054-055-060>062-067>071-170300-
EASTERN PENNSYLVANIA

CITY           SKY/WX    TMP DP  RH WIND       PRES   REMARKS
SCRANTON       CLEAR     34  16  47 NE5       30.52R
MOUNT POCONO   CLEAR     30  13  49 N5        30.46R
ALLENTOWN      CLEAR     36  19  50 N6        30.53R
QUAKERTOWN*    CLEAR     37  18  44 NE3       30.53R
READING        CLEAR     40  15  36 NE6       30.52R
LANCASTER      PTCLDY    38  19  46 NE9       30.52R
COATESVILLE    NOT AVBL
POTTSTOWN      CLEAR     37  20  50 CALM      30.54R
BLUE BELL      CLEAR     37  27  65 CALM      30.52R
DOYLESTOWN     CLEAR     37  18  46 NE3       30.52R
WILLOW GROVE   NOT AVBL
NORTH PHILA    CLEAR     42  17  36 N6        30.54R
PHILADELPHIA   PTCLDY    43  16  33 N6        30.54R
$$



USA.gov is the U.S. government's official web portal to all federal, state and local government web resources and services.